Date String (YYYY-MM-DD hh:mm:ss) UTC,Instrument flags,absolute air pressure of the measurement (hPa),sample flow rate (lpm),inlet stack bypass flow (lpm),air temperature of the measurement (°C),ambient temperature measured by the external sensor (°C),aerosol sample conditioner tube jacket temperature (°C),OPC LED temperature (°C),internal box temperature (°C),relative humidity of the measurement (%),span deviation,mass concentration of particles derived from Lorenz-Mie calculation of OPC scattering (μg/m³),mass concentration of particles derived from Lorenz-Mie calculation of OPC scattering (μg/m³),mass concentration of particles derived from Lorenz-Mie calculation of OPC scattering (μg/m³)
DateTimeUTC,F1_M11,P_M11,Q1_M11,Q2_M11,T1_M11,T2_M11,T3_M11,T4_M11,T5_M11,U1_M11,ZSPAN_M11,X0_M11,X2_M11,X1_M11
2023-11-25 11:00:00,SystemResetWarning,0827.7,5.00,000.00,019.1,018.3,000.0,027.5,020.3,10.3,0000.0,0007.61,0004.26,0004.03
2023-11-25 11:01:00,SystemResetWarning,0827.7,5.01,000.00,019.1,018.3,000.0,027.4,020.4,10.3,0000.0,0007.50,0004.23,0004.01
2023-11-25 11:02:00,SystemResetWarning,0827.8,5.01,000.00,019.2,018.7,000.0,027.4,020.8,10.3,0000.0,0007.47,0004.22,0004.00
2023-11-25 11:03:00,SystemResetWarning,0827.8,4.99,000.00,019.3,019.4,000.0,027.5,021.2,10.2,0000.0,0007.46,0004.18,0003.97
2023-11-25 11:04:00,SystemResetWarning,0827.8,4.99,000.00,019.4,019.5,000.0,027.5,021.1,10.1,0000.0,0007.45,0004.17,0003.96
2023-11-25 11:05:00,SystemResetWarning,0827.8,5.01,000.00,019.4,019.4,000.0,027.5,020.8,10.1,0000.0,0006.65,0004.17,0003.96
2023-11-25 11:06:00,SystemResetWarning,0827.7,5.00,000.00,019.4,019.2,000.0,027.5,020.7,10.1,0000.0,0005.77,0004.17,0003.96
2023-11-25 11:07:00,SystemResetWarning,0827.7,5.00,000.00,019.4,019.1,000.0,027.6,020.6,10.2,0000.0,0005.82,0004.19,0003.97
2023-11-25 11:08:00,SystemResetWarning,0827.7,5.00,000.00,019.3,018.9,000.0,027.6,020.5,10.2,0000.0,0005.93,0004.22,0003.99
2023-11-25 11:09:00,SystemResetWarning,0827.6,5.00,000.00,019.3,018.8,000.0,027.6,020.4,10.2,0000.0,0006.01,0004.25,0003.99
2023-11-25 11:10:00,SystemResetWarning,0827.6,5.01,000.00,019.3,018.7,000.0,027.6,020.4,10.2,0000.0,0006.07,0004.25,0003.98
2023-11-25 11:11:00,SystemResetWarning,0827.7,5.01,000.00,019.2,018.6,000.0,027.6,020.4,10.2,0000.0,0005.98,0004.23,0003.97
2023-11-25 11:12:00,SystemResetWarning,0827.7,5.00,000.00,019.2,018.6,000.0,027.5,020.4,10.2,0000.0,0005.89,0004.21,0003.95
2023-11-25 11:13:00,SystemResetWarning,0827.7,4.99,000.00,019.2,018.5,000.0,027.5,020.4,10.2,0000.0,0005.83,0004.19,0003.95
2023-11-25 11:14:00,SystemResetWarning,0827.7,5.00,000.00,019.2,018.4,000.0,027.5,020.3,10.2,0000.0,0005.89,0004.21,0003.95
2023-11-25 11:15:00,SystemResetWarning,0827.7,5.01,000.00,019.2,018.4,000.0,027.5,020.3,10.2,0000.0,0005.95,0004.23,0003.95
2023-11-25 11:16:00,SystemResetWarning,0827.7,4.99,000.00,019.2,018.4,000.0,027.5,020.3,10.2,0000.0,0005.88,0004.21,0003.94
2023-11-25 11:17:00,SystemResetWarning,0827.7,5.00,000.00,019.2,018.3,000.0,027.5,020.3,10.2,0000.0,0005.90,0004.20,0003.93
2023-11-25 11:18:00,SystemResetWarning,0827.7,5.00,000.00,019.1,018.3,000.0,027.5,020.3,10.3,0000.0,0005.93,0004.18,0003.90
2023-11-25 11:19:00,SystemResetWarning,0827.8,4.99,000.00,019.1,018.3,000.0,027.5,020.2,10.3,0000.0,0005.83,0004.13,0003.86
2023-11-25 11:20:00,SystemResetWarning,0827.8,5.00,000.00,019.1,018.2,000.0,027.5,020.3,10.3,0000.0,0005.78,0004.10,0003.83
2023-11-25 11:21:00,SystemResetWarning,0827.8,5.01,000.00,019.2,018.5,000.0,027.4,020.7,10.2,0000.0,0005.61,0004.05,0003.81
2023-11-25 11:22:00,SystemResetWarning,0827.8,5.01,000.00,019.3,019.2,000.0,027.5,021.2,10.1,0000.0,0005.50,0004.02,0003.80
2023-11-25 11:23:00,SystemResetWarning,0827.8,4.99,000.00,019.4,019.5,000.0,027.5,021.1,10.1,0000.0,0005.51,0004.01,0003.79
2023-11-25 11:24:00,SystemResetWarning,0827.7,5.00,000.00,019.4,019.4,000.0,027.5,020.9,10.1,0000.0,0005.46,0003.99,0003.77
2023-11-25 11:25:00,SystemResetWarning,0827.7,5.00,000.00,019.4,019.2,000.0,027.5,020.7,10.1,0000.0,0005.27,0003.93,0003.75
2023-11-25 11:26:00,SystemResetWarning,0827.7,5.01,000.00,019.4,019.1,000.0,027.6,020.6,10.1,0000.0,0005.16,0003.91,0003.74
2023-11-25 11:27:00,SystemResetWarning,0827.7,5.00,000.00,019.3,019.0,000.0,027.6,020.5,10.1,0000.0,0005.23,0003.92,0003.72
2023-11-25 11:28:00,SystemResetWarning,0827.7,4.99,000.00,019.3,018.9,000.0,027.6,020.5,10.1,0000.0,0005.30,0003.91,0003.70
2023-11-25 11:29:00,SystemResetWarning,0827.8,5.00,000.00,019.3,018.8,000.0,027.6,020.5,10.2,0000.0,0005.35,0003.90,0003.70
2023-11-25 11:30:00,SystemResetWarning,0827.8,4.99,000.00,019.3,018.7,000.0,027.6,020.5,10.2,0000.0,0005.43,0003.92,0003.71
2023-11-25 11:31:00,SystemResetWarning,0827.8,5.00,000.00,019.3,018.6,000.0,027.6,020.4,10.2,0000.0,0005.39,0003.92,0003.71
2023-11-25 11:32:00,SystemResetWarning,0827.8,5.00,000.00,019.2,018.6,000.0,027.5,020.4,10.2,0000.0,0005.52,0003.94,0003.71
2023-11-25 11:33:00,SystemResetWarning,0827.8,5.00,000.00,019.2,018.5,000.0,027.5,020.4,10.2,0000.0,0005.71,0003.96,0003.70
2023-11-25 11:34:00,SystemResetWarning,0827.8,5.00,000.00,019.2,018.4,000.0,027.5,020.3,10.2,0000.0,0005.68,0003.95,0003.68
2023-11-25 11:35:00,SystemResetWarning,0827.7,5.00,000.00,019.2,018.4,000.0,027.5,020.3,10.2,0000.0,0005.77,0003.97,0003.69
2023-11-25 11:36:00,SystemResetWarning,0827.8,5.00,000.00,019.2,018.3,000.0,027.5,020.3,10.2,0000.0,0005.97,0004.03,0003.71
2023-11-25 11:37:00,SystemResetWarning,0827.8,4.99,000.00,019.1,018.3,000.0,027.5,020.3,10.2,0000.0,0005.99,0004.04,0003.71
2023-11-25 11:38:00,SystemResetWarning,0827.8,4.99,000.00,019.1,018.3,000.0,027.5,020.3,10.3,0000.0,0005.96,0004.03,0003.72
2023-11-25 11:39:00,SystemResetWarning,0827.8,5.00,000.00,019.1,018.2,000.0,027.5,020.2,10.3,0000.0,0005.88,0004.02,0003.71
2023-11-25 11:40:00,SystemResetWarning,0827.9,5.01,000.00,019.1,018.2,000.0,027.5,020.2,10.3,0000.0,0005.74,0004.01,0003.71
2023-11-25 11:41:00,SystemResetWarning,0827.8,5.01,000.00,019.1,018.2,000.0,027.5,020.2,10.3,0000.0,0005.68,0004.00,0003.70
2023-11-25 11:42:00,SystemResetWarning,0827.9,4.99,000.00,019.1,018.3,000.0,027.4,020.5,10.3,0000.0,0005.89,0004.01,0003.71
2023-11-25 11:43:00,SystemResetWarning,0827.8,5.00,000.00,019.2,019.0,000.0,027.5,021.0,10.3,0000.0,0006.26,0004.04,0003.72
2023-11-25 11:44:00,SystemResetWarning,0827.8,5.01,000.00,019.4,019.5,000.0,027.5,021.2,10.2,0000.0,0006.15,0004.04,0003.73
2023-11-25 11:45:00,SystemResetWarning,0827.9,5.00,000.00,019.4,019.4,000.0,027.5,020.9,10.2,0000.0,0006.10,0004.04,0003.74
2023-11-25 11:46:00,SystemResetWarning,0827.8,4.99,000.00,019.4,019.3,000.0,027.5,020.8,10.2,0000.0,0006.07,0004.03,0003.75
2023-11-25 11:47:00,SystemResetWarning,0827.9,4.99,000.00,019.4,019.1,000.0,027.5,020.6,10.2,0000.0,0005.98,0004.00,0003.74
2023-11-25 11:48:00,SystemResetWarning,0827.8,5.01,000.00,019.3,019.0,000.0,027.5,020.5,10.2,0000.0,0005.96,0003.99,0003.73
2023-11-25 11:49:00,SystemResetWarning,0827.7,5.01,000.00,019.3,018.9,000.0,027.5,020.5,10.2,0000.0,0006.10,0004.01,0003.73
2023-11-25 11:50:00,SystemResetWarning,0827.8,5.00,000.00,019.3,018.8,000.0,027.5,020.4,10.2,0000.0,0006.12,0004.01,0003.75
2023-11-25 11:51:00,SystemResetWarning,0827.7,5.00,000.00,019.3,018.7,000.0,027.5,020.4,10.2,0000.0,0006.27,0004.04,0003.76
2023-11-25 11:52:00,SystemResetWarning,0827.8,5.00,000.00,019.3,018.6,000.0,027.5,020.4,10.2,0000.0,0006.24,0004.04,0003.76
2023-11-25 11:53:00,SystemResetWarning,0827.8,4.99,000.00,019.2,018.5,000.0,027.5,020.4,10.2,0000.0,0006.07,0004.03,0003.75
2023-11-25 11:54:00,SystemResetWarning,0827.8,4.99,000.00,019.2,018.5,000.0,027.5,020.4,10.2,0000.0,0005.70,0004.01,0003.75
2023-11-25 11:55:00,SystemResetWarning,0827.8,5.00,000.00,019.2,018.4,000.0,027.5,020.3,10.2,0000.0,0005.76,0004.02,0003.76
2023-11-25 11:56:00,SystemResetWarning,0827.8,5.00,000.00,019.2,018.3,000.0,027.5,020.3,10.2,0000.0,0005.82,0004.04,0003.75
2023-11-25 11:57:00,SystemResetWarning,0827.8,5.00,000.00,019.2,018.3,000.0,027.5,020.3,10.2,0000.0,0005.83,0004.05,0003.75
2023-11-25 11:58:00,SystemResetWarning,0827.8,5.00,000.00,019.1,018.3,000.0,027.5,020.2,10.2,0000.0,0005.96,0004.04,0003.75
2023-11-25 11:59:00,SystemResetWarning,0827.8,5.00,000.00,019.1,018.2,000.0,027.5,020.2,10.3,0000.0,0006.06,0004.05,0003.75
